This is the latest recevied weather packets stored in our database for station/object AB1AU. If no packets are shown the sender has not sent any weather packets the latest 10 day(s).
| Time | Temp. | Humidity | Pressure | Rain* | Wind** | Luminosity | Snow |
|---|---|---|---|---|---|---|---|
| 1777731015 | 7.22° C | 81% | 1015.5 hPa | 0 mm | - | 74 W/m² | - |
| 1777730713 | 7.22° C | 81% | 1015.5 hPa | 0 mm | - | 120 W/m² | - |
| 1777730409 | 7.22° C | 80% | 1015.6 hPa | 0 mm | - | 123 W/m² | - |
| 1777730104 | 7.78° C | 78% | 1015.5 hPa | 0 mm | - | 112 W/m² | - |
| 1777729801 | 7.22° C | 78% | 1015.3 hPa | 0 mm | - | 116 W/m² | - |
| 1777729498 | 7.22° C | 79% | 1015.3 hPa | 0 mm | - | 124 W/m² | - |
| 1777729195 | 7.22° C | 79% | 1015.5 hPa | 0 mm | - | 124 W/m² | - |
| 1777728891 | 7.22° C | 80% | 1015.6 hPa | 0 mm | - | 98 W/m² | - |
| 1777728588 | 6.67° C | 82% | 1015.5 hPa | 0 mm | - | 115 W/m² | - |
| 1777728286 | 6.67° C | 83% | 1015.7 hPa | 0 mm | - | 104 W/m² | - |
| 1777727983 | 6.67° C | 83% | 1015.6 hPa | 0 mm | - | 121 W/m² | - |
| 1777727679 | 6.11° C | 84% | 1015.5 hPa | 0 mm | - | 144 W/m² | - |
| 1777727376 | 6.11° C | 84% | 1015.5 hPa | 0 mm | - | 108 W/m² | - |
| 1777727074 | 6.11° C | 83% | 1015.4 hPa | 0 mm | - | 125 W/m² | - |
| 1777726771 | 5.56° C | 83% | 1015.5 hPa | 1.27 mm | - | 64 W/m² | - |
| 1777726468 | 5.56° C | 82% | 1015.4 hPa | 1.27 mm | - | 79 W/m² | - |
| 1777726165 | 5.56° C | 81% | 1015.4 hPa | 0 mm | - | 90 W/m² | - |
| 1777725861 | 5.56° C | 81% | 1015.6 hPa | 0 mm | - | 64 W/m² | - |
| 1777725560 | 5.56° C | 80% | 1015.5 hPa | 0 mm | - | 41 W/m² | - |
| 1777725256 | 5.56° C | 79% | 1015.4 hPa | 0 mm | - | 42 W/m² | - |
| 1777724954 | 5.56° C | 79% | 1015.3 hPa | 0 mm | - | 54 W/m² | - |
| 1777724650 | 5.56° C | 78% | 1015.4 hPa | 0 mm | - | 58 W/m² | - |
| 1777724348 | 5.56° C | 79% | 1015.5 hPa | 0 mm | - | 72 W/m² | - |
| 1777724045 | 5° C | 80% | 1015.7 hPa | 0 mm | - | 64 W/m² | - |
| 1777723742 | 5° C | 80% | 1015.7 hPa | 0 mm | - | 54 W/m² | - |
* Rain latest hour (hover to see other rain measurements)
** Current wind speed in m/s (hover to see current wind gust speed)